This is the latest recevied weather packets stored in our database for station/object KC3WWU. If no packets are shown the sender has not sent any weather packets the latest 10 day(s).
| Time | Temp. | Humidity | Pressure | Rain* | Wind** | Luminosity | Snow |
|---|---|---|---|---|---|---|---|
| 1777585061 | 6.11° C | 89% | 1010.2 hPa | 0 mm | - | 39 W/m² | - |
| 1777584758 | 6.11° C | 89% | 1010.2 hPa | 0 mm | - | 60 W/m² | - |
| 1777584456 | 6.11° C | 90% | 1010.2 hPa | 0 mm | - | 51 W/m² | - |
| 1777584152 | 6.11° C | 91% | 1010 hPa | 0 mm | - | 63 W/m² | - |
| 1777583851 | 6.11° C | 91% | 1009.9 hPa | 0 mm | - | 64 W/m² | - |
| 1777583548 | 6.11° C | 90% | 1010 hPa | 0 mm | - | 76 W/m² | - |
| 1777583247 | 6.11° C | 91% | 1010 hPa | 0 mm | - | 53 W/m² | - |
| 1777582941 | 6.11° C | 91% | 1009.9 hPa | 0 mm | - | 39 W/m² | - |
| 1777582639 | 6.11° C | 91% | 1010 hPa | 0 mm | - | 51 W/m² | - |
| 1777582334 | 6.11° C | 90% | 1010 hPa | 0 mm | - | 83 W/m² | - |
| 1777582033 | 6.67° C | 93% | 1009.6 hPa | 0 mm | - | 156 W/m² | - |
| 1777581728 | 6.11° C | 94% | 1010 hPa | 0 mm | - | 148 W/m² | - |
| 1777581426 | 5.56° C | 94% | 1009.5 hPa | 0 mm | - | 86 W/m² | - |
| 1777581126 | 5.56° C | 94% | 1009.6 hPa | 0 mm | - | 41 W/m² | - |
| 1777580821 | 5.56° C | 94% | 1009.6 hPa | 0 mm | - | 23 W/m² | - |
| 1777580517 | 5.56° C | 94% | 1009.7 hPa | 0 mm | - | 31 W/m² | - |
| 1777580212 | 5.56° C | 94% | 1009.7 hPa | 0 mm | - | 39 W/m² | - |
| 1777579909 | 6.11° C | 95% | 1009.7 hPa | 0 mm | - | 77 W/m² | - |
| 1777579604 | 5.56° C | 94% | 1009.6 hPa | 0 mm | - | 51 W/m² | - |
| 1777579303 | 5.56° C | 95% | 1009.5 hPa | 0 mm | - | 70 W/m² | - |
| 1777578999 | 5.56° C | 96% | 1009.5 hPa | 0 mm | - | 93 W/m² | - |
| 1777578695 | 5.56° C | 97% | 1009.8 hPa | 0 mm | - | 42 W/m² | - |
| 1777578393 | 5.56° C | 97% | 1009.7 hPa | 0 mm | - | 34 W/m² | - |
| 1777578090 | 5.56° C | 97% | 1009.6 hPa | 0 mm | - | 29 W/m² | - |
| 1777577786 | 5.56° C | 97% | 1009.5 hPa | 0 mm | - | 21 W/m² | - |
* Rain latest hour (hover to see other rain measurements)
** Current wind speed in m/s (hover to see current wind gust speed)